CAPE
0 0 0 0 0 0 0 0 0 0 0 0 0 0 0 0 0 0 0 0 0 0 0 0 0 0 0 0 0 0 0 0 0 0 1215 2103 2621 2742 2813 2756 2728 2648 2578 2425 2471 2691 2777 2604 2310 2033 2025 1953 1828 1723 1680 1629 1627 1538 1273 948 932 1076 1284 1117 1046 1066 1098 1146 1114 988 846 732 694 1039 1268 1395 1455 1374 1261 1334 1489 1529 1114 976 960 1041
0 0 0 0 0 0 0 0 0 0 0 0 0 0 0 0 0 0 0 0 0 0 0 0 0 0 0 0 0 0 0 0 0 80 1042 1632 2232 2585 2746 2859 2891 2797 2812 2629 2543 2656 2836 2527 2256 2118 1991 1863 1811 1784 1731 1704 1696 1535 1259 866 939 965 1203 1154 1143 1105 1080 1164 1094 969 858 748 748 855 983 1231 1473 1435 1306 1352 1472 1324 1175 959 845 971
0 0 0 0 0 0 0 0 0 0 0 0 0 0 0 0 0 0 0 0 0 0 0 0 0 0 0 0 0 0 0 0 0 0 711 1263 1720 2114 2574 2821 3038 2973 2886 2693 2613 2680 2785 2616 2300 2086 1938 1893 1891 1806 1848 1791 1685 1485 1254 1043 939 933 1156 1162 1156 1169 1174 1128 1057 940 834 760 872 916 925 1064 1398 1420 1271 1309 1264 1064 1061 913 815 899
0 0 0 0 0 0 0 0 0 0 0 0 0 0 0 0 0 0 0 0 0 0 0 0 0 0 0 0 0 0 0 0 0 0 271 974 1195 1504 2257 2662 2933 3020 2875 2765 2654 2703 2651 2521 2223 2042 1968 2035 2028 1979 1861 1782 1648 1491 1344 1172 982 985 1123 1189 1110 1177 1160 1095 1026 930 850 790 855 886 865 1036 1344 1304 1172 1134 1082 970 900 733 775 826
0 0 0 0 0 0 0 0 0 0 0 0 0 0 0 0 0 0 0 0 0 0 0 0 0 0 0 0 0 0 0 0 0 0 0 688 926 1163 1850 2339 2639 2796 2806 2801 2696 2756 2668 2426 2179 2133 2152 2196 2173 2054 1793 1684 1644 1544 1388 1252 1043 1062 1085 1204 1127 1093 1058 1015 990 954 851 805 840 844 854 962 1234 1333 1128 1108 982 861 802 621 644 650
0 0 0 0 0 0 0 0 0 0 0 0 0 0 0 0 0 0 0 0 14 3 0 0 0 0 0 0 0 0 0 0 0 0 0 0 535 710 1271 1838 2093 2425 2624 2782 2703 2694 2695 2552 2345 2265 2269 2314 2226 2036 1794 1663 1641 1548 1401 1284 1083 1174 1115 1201 1187 1104 1048 1027 1008 979 860 886 853 857 878 968 1140 1210 1084 1050 920 764 728 602 553 557
0 0 0 0 0 0 0 0 0 0 0 0 0 0 0 0 0 0 0 0 21 16 0 0 0 0 0 0 0 0 0 0 0 0 0 0 0 371 779 1491 1783 2120 2536 2761 2720 2687 2699 2607 2431 2407 2403 2350 2192 1991 1780 1721 1624 1536 1433 1328 1160 1264 1232 1254 1236 1173 1103 1023 958 971 868 876 833 794 832 858 1014 1079 1074 992 843 706 646 599 584 578
0 0 0 0 0 0 0 0 0 0 0 0 0 0 0 0 0 0 0 0 3 18 0 0 0 0 0 0 0 0 0 0 0 0 0 0 0 11 474 1210 1635 1920 2467 2700 2700 2708 2708 2625 2527 2484 2463 2305 2123 1894 1775 1739 1612 1548 1502 1345 1172 1284 1304 1309 1299 1248 1171 1095 994 929 823 832 833 757 747 830 914 1050 1063 938 781 682 595 584 583 590
0 0 0 0 0 0 0 0 0 0 0 0 0 0 0 0 0 0 0 0 0 40 16 11 4 0 0 0 0 0 0 0 0 0 0 0 0 0 0 733 1467 1691 2387 2642 2683 2702 2670 2594 2536 2526 2442 2241 1998 1752 1764 1716 1632 1576 1511 1378 1243 1325 1328 1342 1367 1323 1256 1150 1050 930 797 806 812 742 742 887 942 1026 998 849 743 683 604 539 555 569
0 0 0 0 0 4 0 0 0 8 7 0 0 0 0 0 0 0 0 0 0 46 38 29 10 1 0 0 0 0 0 0 0 0 0 0 0 0 0 191 1080 1514 2343 2615 2666 2671 2629 2565 2544 2472 2353 2090 1897 1757 1702 1696 1644 1586 1495 1412 1297 1348 1374 1393 1397 1358 1295 1224 1094 961 848 797 776 727 829 875 925 913 859 794 712 695 648 537 488 485
0 0 0 0 3 0 0 0 0 8 1 15 3 5 0 0 0 0 0 0 0 20 37 32 10 6 0 0 0 0 0 0 0 0 0 0 0 0 0 0 783 1590 2293 2568 2625 2618 2584 2551 2499 2421 2245 2082 1924 1751 1736 1718 1687 1624 1550 1463 1368 1310 1411 1426 1416 1387 1354 1316 1176 971 842 768 733 742 819 923 900 869 806 754 705 665 640 583 535 484
0 0 0 0 0 0 0 0 0 8 23 6 4 3 8 12 12 6 0 0 0 7 22 43 23 11 0 0 0 0 0 0 0 0 0 0 0 0 0 0 462 1660 2225 2498 2556 2581 2579 2512 2417 2325 2233 2130 1966 1823 1797 1786 1734 1672 1594 1500 1396 1337 1419 1468 1465 1424 1424 1372 1253 1005 804 737 680 710 791 889 908 859 794 758 708 660 618 608 562 531
0 0 0 0 0 0 0 0 0 4 22 10 4 7 3 16 26 25 9 3 0 0 1 45 34 18 2 0 0 0 0 0 0 0 0 0 0 0 0 0 457 1561 2202 2393 2436 2503 2461 2350 2334 2326 2253 2116 1942 1851 1855 1836 1759 1691 1621 1540 1424 1382 1416 1465 1497 1492 1468 1395 1256 1064 919 804 704 705 732 812 834 797 765 702 711 680 667 652 608 576
0 0 0 0 0 0 0 0 0 17 26 20 2 8 7 11 23 23 44 8 0 0 0 48 34 26 2 0 0 0 0 0 0 0 0 0 0 0 0 1 599 1440 2095 2259 2319 2357 2305 2268 2294 2280 2203 2091 1976 1916 1934 1884 1788 1708 1647 1562 1444 1408 1446 1453 1484 1492 1456 1378 1243 1118 1014 852 703 713 641 776 718 725 674 658 684 700 679 638 595 542
0 0 0 0 0 0 0 0 0 13 26 22 4 2 4 16 15 22 18 20 8 1 0 35 25 26 17 0 0 0 0 0 0 0 0 0 0 0 0 0 789 1473 1974 2195 2226 2229 2238 2267 2299 2267 2208 2103 1990 1955 1974 1892 1801 1718 1649 1556 1483 1503 1582 1498 1461 1461 1428 1366 1278 1186 1048 859 742 692 611 623 786 833 679 634 639 652 653 630 578 523
2 2 0 0 0 0 0 0 0 1 19 22 7 5 2 7 19 16 40 56 42 7 0 14 41 22 19 0 0 0 0 0 0 0 0 0 0 0 0 7 714 1448 1791 2097 2192 2219 2264 2268 2250 2254 2203 2077 1988 2009 1992 1899 1818 1714 1645 1578 1540 1616 1681 1528 1477 1443 1406 1324 1240 1166 1036 900 824 708 737 756 882 851 640 602 566 540 526 483 477 359
0 0 0 0 0 0 0 0 7 2 0 6 10 6 2 10 10 15 23 24 30 6 0 0 27 13 26 4 0 0 0 0 0 0 0 0 0 0 0 16 874 1548 1787 2038 2208 2243 2268 2241 2207 2235 2207 2056 1977 1985 1957 1903 1824 1736 1656 1591 1614 1739 1738 1573 1462 1456 1418 1330 1264 1197 1099 987 910 845 832 935 983 837 636 590 537 468 426 392 370 310
0 0 0 0 0 0 0 0 0 0 0 9 0 4 23 14 31 10 20 54 27 12 0 0 19 21 62 18 1 0 0 0 0 0 0 0 0 0 0 119 1003 1576 1794 1990 2164 2204 2197 2198 2229 2251 2200 2061 1996 1959 1933 1895 1862 1795 1739 1723 1780 1826 1798 1660 1450 1451 1424 1330 1260 1204 1127 1063 977 948 1022 1050 982 780 654 558 500 413 341 321 343 261
0 0 0 0 0 0 0 0 0 0 0 1 0 0 0 39 3 8 19 14 5 0 0 0 13 19 48 27 8 2 0 0 0 0 0 0 0 0 0 407 1145 1570 1803 1971 2072 2120 2156 2199 2237 2236 2196 2140 2067 1970 1962 1965 1939 1903 1873 1852 1851 1837 1771 1715 1528 1476 1447 1349 1270 1230 1168 1084 1079 1114 1152 1075 839 753 633 497 334 40 0 217 321 254
0 1 0 0 0 7 0 21 0 0 0 0 0 0 305 7 8 12 6 10 28 21 0 18 2 37 46 65 9 0 0 0 0 0 0 0 0 0 2 618 1234 1521 1776 1995 2084 2109 2148 2170 2231 2256 2200 2143 2074 2009 1998 1962 1962 1967 1936 1873 1810 1781 1767 1700 1518 1461 1427 1350 1288 1275 1215 1175 1178 1172 1111 941 800 723 593 461 289 0 97 300 324 239
0 0 2 0 0 0 0 0 0 0 0 0 1 3 67 4 1 6 12 22 0 30 6 32 16 62 70 60 22 27 10 0 0 0 0 0 0 0 9 608 1184 1411 1746 2009 2082 2120 2131 2133 2187 2218 2178 2136 2047 2014 1988 1964 2018 2041 1986 1905 1829 1816 1831 1727 1603 1452 1364 1348 1350 1374 1333 1237 1232 1190 1001 820 753 683 567 380 120 0 260 341 304 207
0 0 0 0 0 0 0 0 0 0 0 0 0 0 0 4 2 0 5 6 2 0 10 5 2 15 20 42 36 30 9 7 2 6 0 0 0 0 1 319 1083 1484 1756 1980 2080 2073 2065 2093 2119 2123 2133 2103 1994 1980 1963 1955 1978 2008 2019 1942 1883 1818 1834 1769 1596 1436 1399 1468 1582 1546 1447 1282 1128 1044 895 763 703 634 480 368 251 294 310 304 232 0
35 5 6 0 0 0 0 0 45 31 4 0 0 0 1 8 10 1 10 4 14 4 11 1 0 0 14 34 16 23 11 12 11 103 115 0 0 0 0 71 978 1636 1861 1966 2011 1976 1975 2019 2042 2035 2082 2111 1986 1965 1907 1893 1929 1955 1983 1923 1892 1878 1852 1759 1624 1490 1414 1372 1348 1276 1182 1082 934 840 793 695 689 600 494 439 389 340 234 0 0 0
14 2 3 10 3 1 45 70 43 0 0 0 0 0 1 2 0 0 8 25 14 10 0 3 0 1 13 4 6 4 11 5 3 154 204 0 0 0 0 23 906 1650 1910 1978 1993 1955 1941 1973 1976 1982 1985 1991 1935 1905 1851 1860 1873 1872 1870 1895 1895 1883 1848 1743 1634 1498 1344 1231 1119 1097 1039 986 935 828 696 637 624 573 575 508 427 266 0 0 0 0
0 2 0 0 2 0 37 55 56 58 1 0 0 0 0 0 0 3 12 18 7 24 0 0 0 10 9 0 0 12 11 7 104 200 220 44 0 0 0 216 1184 1769 1971 2020 2002 1984 1983 1957 1951 1948 1955 1947 1918 1874 1794 1779 1811 1816 1834 1844 1842 1833 1791 1761 1719 1668 1449 1216 1192 1070 902 905 861 784 719 664 626 651 656 525 441 278 0 0 0 0
2 8 8 9 16 0 0 3 31 41 0 0 0 0 0 0 5 14 11 21 12 0 0 0 0 0 5 0 7 10 21 20 203 249 165 120 0 0 3 516 1470 1899 2017 2033 2031 2027 1999 1982 2000 1992 1956 1929 1868 1784 1740 1743 1766 1761 1781 1768 1750 1744 1772 1755 1697 1547 1294 1232 1318 1132 906 894 845 772 712 680 665 709 664 530 471 354 0 0 0 0
0 8 25 55 38 50 195 54 138 126 0 0 0 0 0 0 12 7 6 20 8 10 1 0 0 0 0 0 3 1 18 17 150 258 113 0 0 0 164 981 1640 1935 2050 2051 2029 2022 2040 2016 1972 1960 1941 1856 1768 1696 1663 1710 1711 1719 1729 1699 1659 1690 1683 1616 1522 1424 1226 1394 1435 1168 947 896 847 780 710 696 724 706 602 568 506 416 336 142 0 0
1 2 5 20 17 30 131 172 212 244 160 14 0 0 0 0 0 1 11 10 0 0 0 0 6 0 0 19 12 6 4 12 94 251 86 0 50 461 1005 1532 1805 1925 2008 2021 2000 1963 1949 1959 1961 1932 1881 1785 1708 1646 1626 1639 1642 1661 1663 1627 1596 1593 1593 1514 1427 1350 1291 1455 1427 1142 992 965 897 822 801 788 797 760 614 470 418 382 373 332 211 0
0 7 0 6 76 50 90 104 141 165 92 162 58 0 0 0 0 6 18 1 0 6 11 0 0 0 1 11 0 1 10 20 96 300 392 64 0 946 1493 1797 1931 1936 1946 1954 1969 1979 1991 1975 1936 1900 1850 1773 1691 1652 1619 1591 1590 1602 1609 1581 1542 1533 1497 1434 1363 1292 1325 1376 1167 1096 1094 1069 978 880 864 840 860 734 586 457 391 381 362 314 0 0
0 0 0 0 1 71 105 80 64 68 216 273 168 0 0 0 0 2 5 0 0 0 0 6 2 0 0 0 0 0 0 14 42 456 450 406 62 555 1783 1860 1954 1946 1942 1946 1947 1967 1971 1936 1906 1874 1826 1728 1672 1643 1610 1598 1601 1588 1588 1584 1542 1522 1461 1436 1459 1417 1305 1250 1215 1192 1175 1157 1089 959 918 922 764 599 496 425 398 373 283 163 0 37
2 0 13 0 4 6 0 62 3 2 34 259 268 42 0 0 0 0 0 0 0 0 0 10 16 32 5 0 1 0 12 26 150 412 701 552 343 578 1565 1872 2006 1962 1989 1961 1940 1933 1916 1876 1849 1826 1747 1684 1646 1639 1601 1598 1608 1568 1535 1545 1557 1582 1541 1488 1506 1478 1410 1357 1312 1276 1252 1238 1194 1074 917 850 637 535 480 404 411 309 85 52 58 235
0 0 13 0 8 0 15 58 14 78 97 54 294 94 0 0 0 4 0 0 0 0 0 0 0 6 0 0 0 0 0 0 169 586 867 748 537 657 1626 1709 1814 1840 1918 1899 1882 1851 1841 1817 1787 1795 1767 1715 1692 1649 1621 1591 1583 1522 1489 1463 1479 1550 1576 1548 1544 1520 1462 1388 1358 1339 1297 1246 1183 1078 906 777 619 552 508 456 405 309 132 0 0 207
0 1 2 0 1 0 5 0 18 48 0 0 0 0 0 0 0 11 3 0 0 0 0 1 1 2 0 11 0 0 11 0 39 595 808 966 1046 863 1495 1818 1787 1842 1862 1850 1805 1785 1816 1836 1816 1820 1828 1778 1700 1673 1638 1593 1511 1467 1439 1398 1421 1464 1531 1574 1599 1574 1508 1453 1437 1410 1348 1296 1197 1051 886 730 635 575 485 462 423 418 278 195 66 44
1 0 4 0 0 0 0 0 0 9 1 17 131 0 0 123 3 0 0 0 1 0 0 0 0 1 196 12 2 8 0 9 28 270 517 837 901 1112 1309 1758 1856 1806 1811 1816 1820 1784 1827 1854 1810 1833 1804 1754 1722 1689 1647 1539 1490 1468 1441 1412 1399 1464 1493 1495 1574 1622 1623 1562 1508 1471 1427 1328 1176 954 959 828 608 522 456 422 501 488 376 255 212 180
0 1 1 0 2 2 0 0 2 6 12 5 12 23 351 356 213 1 0 2 0 0 0 0 0 2 0 2 6 1 26 52 16 48 32 430 554 352 1184 1671 1802 1794 1672 1661 1682 1720 1791 1867 1835 1823 1788 1755 1734 1658 1593 1539 1490 1461 1442 1388 1400 1452 1470 1475 1538 1618 1665 1645 1581 1548 1506 1361 1163 915 1002 924 648 504 493 491 420 382 360 324 267 213
0 1 4 0 5 2 4 10 9 82 19 9 4 81 399 446 524 400 298 300 360 726 0 0 0 0 0 64 0 18 79 61 3 18 7 48 58 224 170 1353 1663 1826 1822 1776 1802 1791 1842 1866 1850 1858 1860 1817 1725 1670 1636 1621 1560 1497 1446 1350 1392 1430 1497 1508 1549 1583 1633 1672 1667 1607 1527 1442 1284 966 969 975 734 540 517 535 502 385 332 314 290 217
0 0 3 5 6 0 0 13 14 9 2 3 45 2 56 309 360 648 469 429 284 719 880 484 0 0 0 0 0 1 0 0 0 1 0 5 37 57 608 1352 1816 2012 1904 1898 1902 1883 1866 1873 1878 1843 1819 1772 1732 1725 1669 1606 1533 1505 1444 1400 1431 1453 1506 1532 1522 1518 1529 1528 1529 1527 1489 1407 1253 1001 854 869 755 576 562 584 581 474 374 264 242 246
0 0 2 5 3 0 2 14 8 0 0 2 6 16 26 194 107 178 377 601 619 812 988 1133 1057 888 645 0 0 0 0 0 0 0 1 0 0 0 394 1216 1774 1898 2015 2017 2003 1958 1875 1836 1793 1806 1880 1840 1767 1723 1648 1567 1514 1501 1472 1457 1458 1488 1520 1505 1447 1414 1415 1445 1458 1470 1449 1373 1220 1044 898 769 730 653 646 630 617 594 500 327 196 144
0 0 0 0 1 0 8 0 1 8 3 0 16 17 55 14 81 47 158 212 640 832 773 1054 1033 1062 1133 832 521 63 0 1 0 0 0 0 25 0 6 921 1051 1202 1671 2073 2017 1934 1892 1921 1886 1861 1862 1848 1764 1703 1635 1564 1513 1468 1458 1443 1454 1475 1456 1385 1371 1365 1405 1474 1491 1486 1427 1393 1298 1194 984 789 750 670 714 746 681 694 610 415 226 192
1 0 0 2 10 1 0 0 9 0 0 0 1 21 40 6 21 20 0 2 474 829 861 872 881 956 902 746 690 202 0 0 0 0 0 0 307 346 0 602 993 938 1377 1872 1954 1890 1959 2019 1923 1801 1734 1752 1773 1712 1639 1544 1482 1437 1434 1455 1456 1480 1480 1407 1382 1412 1421 1475 1537 1498 1457 1431 1135 1021 860 757 856 654 573 755 806 765 717 416 211 223
2 0 0 6 6 16 0 1 0 0 0 0 0 12 10 41 18 2 0 184 319 655 886 749 702 857 799 765 672 145 0 0 0 0 0 7 200 828 234 758 1107 955 1132 1644 1994 1917 1892 1998 1974 1908 1809 1763 1736 1686 1613 1553 1511 1466 1465 1464 1445 1463 1472 1443 1366 1368 1443 1507 1501 1478 1534 1434 1359 1201 963 931 762 593 490 684 866 802 681 384 231 209
0 0 0 0 0 0 0 3 0 0 0 0 0 2 83 109 132 5 23 171 365 537 734 688 876 882 593 885 696 749 560 233 538 727 658 0 51 932 904 407 940 1318 1390 1656 1950 1999 1998 2067 2063 2000 1912 1771 1671 1656 1606 1566 1509 1486 1456 1446 1411 1387 1393 1452 1427 1418 1446 1468 1478 1417 1212 1252 1349 1025 868 782 633 514 499 680 897 820 656 474 330 286
8 0 0 0 0 0 1 0 0 1 0 0 0 0 0 65 123 92 11 28 109 402 475 631 894 794 827 727 883 975 971 1022 788 992 988 633 524 798 1154 1062 674 381 948 1598 1885 1984 1870 1926 2009 1988 1870 1747 1654 1589 1592 1529 1494 1449 1436 1416 1392 1342 1349 1422 1447 1437 1428 1413 1381 1460 1347 1272 1089 880 849 715 607 440 493 731 884 792 636 482 461 388
4 1 4 0 4 0 1 0 9 2 0 1 6 2 1 65 70 42 25 49 49 202 267 525 755 778 798 800 901 1172 1287 1101 1098 1065 1228 1021 843 922 692 798 1100 1281 581 282 1005 1733 1874 1803 1830 1873 1820 1774 1728 1670 1586 1534 1506 1473 1451 1443 1382 1340 1356 1420 1464 1487 1425 1354 1336 1349 1247 980 878 865 774 690 496 484 577 765 852 688 596 592 474 426
33 2 0 5 0 2 10 2 0 0 0 1 5 7 4 8 10 22 14 13 18 50 397 477 709 676 672 641 872 1327 1407 1307 1164 1116 1338 1464 1310 1190 991 772 973 1091 1130 945 674 1125 1430 1652 1772 1767 1796 1767 1706 1648 1598 1534 1507 1485 1446 1448 1410 1403 1426 1469 1492 1497 1475 1452 1438 1348 966 794 840 850 815 719 547 628 722 728 678 618 588 518 463 469
9 16 6 3 1 4 12 1 0 0 0 0 6 19 16 4 1 16 0 1 38 0 334 505 640 745 597 661 677 1020 1191 1457 1359 1264 1247 1432 1411 1292 1100 1023 876 929 1176 828 910 1035 1334 1552 1650 1764 1791 1775 1724 1701 1672 1615 1541 1522 1488 1458 1430 1416 1447 1481 1518 1493 1442 1396 1385 1205 962 909 857 742 882 809 682 672 659 628 576 561 521 439 474 479
0 56 26 0 29 6 0 0 0 0 0 0 3 10 6 0 21 34 4 0 85 81 11 316 523 608 609 560 581 616 805 1207 1389 1395 1299 1187 1158 1158 1060 841 787 729 879 1055 950 1278 1280 1380 1614 1688 1758 1742 1748 1736 1680 1668 1494 1389 1436 1438 1429 1428 1470 1489 1430 1363 1335 1334 1249 973 630 765 797 832 883 867 838 765 717 648 586 580 596 558 451 384
0 21 18 19 14 0 0 0 0 0 0 1 19 42 23 20 1 3 28 2 14 21 122 8 24 266 499 591 531 523 517 720 952 1034 1197 1177 1017 947 928 748 677 661 658 743 857 986 1354 1517 1628 1649 1658 1613 1616 1538 1433 1253 1308 1228 1338 1464 1478 1426 1350 1270 1213 1213 1233 1185 1117 1018 886 819 862 832 815 870 791 837 768 584 617 653 652 568 460 386
0 1 5 29 2 0 2 0 28 12 1 1 210 6 5 9 1 1 1 0 2 9 1 52 103 33 328 425 480 412 466 564 723 884 1094 1032 1015 896 734 558 646 731 741 670 841 881 928 942 1055 1077 938 845 715 1004 1168 830 984 1276 1406 1397 1297 1228 1285 1330 1282 1261 1199 1091 995 1004 899 733 671 729 743 735 629 645 527 614 715 721 662 559 460 351
0 0 10 28 0 0 0 0 2 5 0 0 4 0 0 6 15 0 0 24 21 2 0 2 6 5 0 66 296 481 471 553 592 661 761 859 962 858 777 666 698 737 727 568 694 912 803 973 845 814 1048 870 733 726 871 940 1112 1252 1324 1267 1201 1138 1181 1261 1327 1301 1139 853 805 748 643 654 682 633 540 464 399 408 493 666 790 727 572 550 400 310
0 0 0 0 0 0 0 0 0 13 12 0 2 3 20 42 0 0 0 0 1 0 0 0 0 0 21 27 384 418 558 561 572 614 619 702 682 664 717 741 781 718 558 563 841 798 552 440 546 676 716 352 532 528 422 568 967 1156 1188 1146 1108 1076 1034 1137 1074 922 869 820 628 573 589 642 598 487 420 526 586 600 714 810 805 692 598 447 377 312
Wind_Speed
nan nan nan nan nan nan nan nan nan nan nan nan nan nan nan nan nan nan nan nan nan nan nan nan nan nan nan nan nan nan nan nan nan nan 51 50 46 43 42 40 40 38 35 40 45 45 43 42 39 35 32 33 35 34 33 35 36 37 37 36 36 35 35 36 36 36 37 38 37 34 31 31 29 28 25 24 22 22 21 21 20 18 16 14 12 13
nan nan nan nan nan nan nan nan nan nan nan nan nan nan nan nan nan nan nan nan nan nan nan nan nan nan nan nan nan nan nan nan nan nan 49 49 47 48 47 45 44 40 43 48 51 48 46 47 49 46 41 42 45 40 38 38 39 40 40 39 39 37 35 34 35 35 36 36 34 33 31 31 29 28 25 24 21 21 21 20 19 18 16 14 13 13
nan nan nan nan nan nan nan nan nan nan nan nan nan nan nan nan nan nan nan nan nan nan nan nan nan nan nan nan nan nan nan nan nan nan 48 46 44 48 48 46 47 48 48 51 51 50 49 51 55 53 47 43 42 41 40 42 43 42 42 42 41 38 36 34 36 37 36 34 33 32 31 33 28 22 22 23 21 20 21 19 19 18 16 15 14 13
nan nan nan nan nan nan nan nan nan nan nan nan nan nan nan nan nan nan nan nan nan nan nan nan nan nan nan nan nan nan nan nan nan nan 50 45 40 44 47 47 49 50 53 54 54 52 53 54 55 54 50 45 41 39 41 45 46 42 42 42 41 39 37 35 36 38 37 36 32 32 35 31 30 26 22 22 21 20 21 20 19 16 15 15 16 15
nan nan nan nan nan nan nan nan nan nan nan nan nan nan nan nan nan nan nan nan nan nan nan nan nan nan nan nan nan nan nan nan nan nan nan 44 43 40 45 47 48 51 54 54 54 53 53 54 54 52 49 47 42 41 44 47 45 40 42 42 41 40 38 36 37 39 39 38 34 33 34 33 32 27 23 23 21 20 21 22 19 17 16 16 17 17
nan nan nan nan nan nan nan nan nan nan nan nan nan nan nan nan nan nan nan nan nan nan nan nan nan nan nan nan nan nan nan nan nan nan nan nan 45 45 44 46 48 50 53 55 54 53 53 54 53 53 52 46 42 42 43 44 42 40 40 41 41 39 37 37 38 39 40 37 35 34 35 34 30 27 23 22 22 22 22 22 20 18 17 17 18 17
nan nan nan nan nan nan nan nan nan nan nan nan nan nan nan nan nan nan nan nan nan nan nan nan nan nan nan nan nan nan nan nan nan nan nan nan nan 46 47 49 50 51 53 55 56 56 56 54 53 52 48 43 41 40 41 39 38 38 38 38 38 36 35 36 37 38 39 36 33 33 33 31 28 26 21 21 21 23 22 23 22 20 18 19 21 18
nan nan nan nan nan nan nan nan nan nan nan nan nan nan nan nan nan nan nan nan nan nan nan nan nan nan nan nan nan nan nan nan nan nan nan nan nan nan 46 47 49 51 54 56 56 56 56 53 51 49 44 40 39 39 38 35 34 35 34 34 34 32 33 34 35 35 36 35 32 31 31 28 25 24 23 22 22 23 24 24 22 20 19 20 21 21
nan nan nan nan nan nan nan nan nan nan nan nan nan nan nan nan nan nan nan nan nan nan nan nan nan nan nan nan nan nan nan nan nan nan nan nan nan nan nan 46 48 51 54 56 57 55 54 52 49 46 42 40 42 38 34 31 30 30 30 31 31 30 32 32 33 34 33 33 31 31 29 26 22 24 24 23 24 25 24 25 21 21 20 21 21 21
nan nan nan nan nan nan nan nan nan nan nan nan nan nan nan nan nan nan nan nan nan nan nan nan nan nan nan nan nan nan nan nan nan nan nan nan nan nan nan 47 51 55 55 55 56 55 52 49 46 43 43 44 39 35 33 31 28 27 27 29 30 30 31 32 32 33 32 32 31 29 27 26 24 24 24 24 25 24 24 24 22 21 21 21 21 20
nan nan nan nan nan nan nan nan nan nan nan nan nan nan nan nan nan nan nan nan nan nan nan nan nan nan nan nan nan nan nan nan nan nan nan nan nan nan nan nan 52 54 53 53 52 51 48 45 43 43 44 41 38 35 33 30 27 25 25 27 29 30 30 31 32 32 32 30 28 26 25 24 24 25 25 24 23 23 23 23 21 21 21 20 21 20
nan nan nan nan nan nan nan nan nan nan nan nan nan nan nan nan nan nan nan nan nan nan nan nan nan nan nan nan nan nan nan nan nan nan nan nan nan nan nan nan 52 52 51 50 50 47 45 44 43 43 42 39 35 34 31 28 26 25 25 27 29 29 30 30 30 30 29 27 25 23 23 21 22 25 23 24 24 22 23 22 21 19 20 20 21 20
nan nan nan nan nan nan nan nan nan nan nan nan nan nan nan nan nan nan nan nan nan nan nan nan nan nan nan nan nan nan nan nan nan nan nan nan nan nan nan nan 52 51 51 49 48 47 45 44 43 40 38 35 31 29 29 28 27 27 27 28 30 29 29 29 29 28 26 25 23 21 20 20 21 23 23 23 22 20 21 20 20 20 21 21 22 20
nan nan nan nan nan nan nan nan nan nan nan nan nan nan nan nan nan nan nan nan nan nan nan nan nan nan nan nan nan nan nan nan nan nan nan nan nan nan nan nan 50 50 50 48 47 45 43 43 40 37 36 32 28 28 29 28 28 28 27 27 28 29 28 28 28 26 24 22 21 19 19 20 21 22 22 21 21 19 19 19 20 20 20 21 20 20
nan nan nan nan nan nan nan nan nan nan nan nan nan nan nan nan nan nan nan nan nan nan nan nan nan nan nan nan nan nan nan nan nan nan nan nan nan nan nan nan 45 47 48 48 46 44 42 41 39 36 34 31 28 28 28 26 27 28 27 27 28 29 28 28 27 25 23 21 20 19 19 20 21 21 21 20 19 19 19 18 19 19 19 20 19 19
nan nan nan nan nan nan nan nan nan nan nan nan nan nan nan nan nan nan nan nan nan nan nan nan nan nan nan nan nan nan nan nan nan nan nan nan nan nan nan nan 43 45 46 47 45 43 41 39 37 35 33 30 28 28 27 26 26 26 25 26 28 29 29 28 27 23 21 20 20 19 20 21 21 21 21 20 19 18 17 18 19 19 19 19 20 19
nan nan nan nan nan nan nan nan nan nan nan nan nan nan nan nan nan nan nan nan nan nan nan nan nan nan nan nan nan nan nan nan nan nan nan nan nan nan nan nan 44 45 45 44 42 41 39 38 36 34 31 29 28 27 25 24 24 24 26 27 28 29 28 27 25 23 20 20 20 19 20 21 21 21 21 20 19 18 17 18 18 19 19 20 20 20
nan nan nan nan nan nan nan nan nan nan nan nan nan nan nan nan nan nan nan nan nan nan nan nan nan nan nan nan nan nan nan nan nan nan nan nan nan nan nan 39 40 40 40 38 39 39 38 36 34 30 28 28 26 25 24 23 22 23 25 27 29 29 27 25 25 22 20 20 20 20 21 20 20 20 20 19 19 18 18 17 18 19 20 19 19 20
nan nan nan nan nan nan nan nan nan nan nan nan nan nan nan nan nan nan nan nan nan nan nan nan nan nan nan nan nan nan nan nan nan nan nan nan nan nan nan 39 37 37 39 38 37 35 33 33 32 29 27 24 23 24 23 24 25 25 26 27 28 27 25 26 25 22 20 21 21 20 21 21 20 20 19 18 18 18 18 18 18 nan nan 19 19 20
nan nan nan nan nan nan nan nan nan nan nan nan nan nan 38 nan nan nan nan nan nan nan nan nan nan nan nan nan nan nan nan nan nan nan nan nan nan nan nan 39 36 37 38 36 34 30 29 30 29 27 27 27 26 24 24 26 26 26 27 29 27 25 26 26 25 21 20 20 21 21 22 20 20 20 19 18 18 17 17 17 19 nan nan 19 18 19
nan nan nan nan nan nan nan nan nan nan nan nan nan nan nan nan nan nan nan nan nan nan nan nan nan nan nan nan nan nan nan nan nan nan nan nan nan nan nan 33 32 34 36 32 28 25 24 25 25 26 28 28 28 27 27 26 25 26 28 27 26 25 25 25 23 20 20 21 21 22 22 21 20 20 19 18 17 18 17 17 18 nan 19 19 19 20
nan nan nan nan nan nan nan nan nan nan nan nan nan nan nan nan nan nan nan nan nan nan nan nan nan nan nan nan nan nan nan nan nan nan nan nan nan nan nan 26 28 31 32 28 23 20 19 21 24 28 32 32 31 30 28 27 28 28 26 27 27 25 23 24 22 19 21 21 21 22 22 21 21 20 19 19 18 18 18 18 18 19 20 20 20 nan
nan nan nan nan nan nan nan nan nan nan nan nan nan nan nan nan nan nan nan nan nan nan nan nan nan nan nan nan nan nan nan nan nan 50 45 nan nan nan nan nan 25 28 28 20 17 18 20 21 23 27 29 30 29 29 29 29 28 26 26 28 28 26 23 23 21 20 21 22 22 22 22 21 20 20 20 20 19 19 19 19 19 19 21 nan nan nan
nan nan nan nan nan nan nan nan nan nan nan nan nan nan nan nan nan nan nan nan nan nan nan nan nan nan nan nan nan nan nan nan nan 53 52 nan nan nan nan nan 25 27 23 16 15 19 21 22 26 28 29 29 30 31 30 28 27 27 27 28 28 25 25 24 21 20 21 22 22 22 22 20 20 21 21 20 19 20 20 19 18 19 nan nan nan nan
nan nan nan nan nan nan nan nan nan nan nan nan nan nan nan nan nan nan nan nan nan nan nan nan nan nan nan nan nan nan nan nan 55 55 59 nan nan nan nan 27 28 28 23 16 16 19 22 24 27 28 28 29 31 30 29 28 27 26 26 27 27 26 25 23 21 20 21 22 23 22 21 20 20 20 20 20 19 20 21 20 19 19 nan nan nan nan
nan nan nan nan nan nan nan nan nan nan nan nan nan nan nan nan nan nan nan nan nan nan nan nan nan nan nan nan nan nan nan nan 52 55 59 63 nan nan nan 29 29 26 18 13 15 19 19 21 25 26 26 29 31 30 29 27 26 26 26 25 27 27 25 22 21 20 22 23 23 22 21 20 20 20 20 20 20 21 21 20 19 20 nan nan nan nan
nan nan nan nan nan nan 10 nan 21 27 nan nan nan nan nan nan nan nan nan nan nan nan nan nan nan nan nan nan nan nan nan nan 54 58 63 nan nan nan 30 29 26 21 15 13 14 15 17 20 22 22 25 28 29 28 27 26 26 26 26 25 26 25 23 21 20 20 22 23 23 22 21 20 20 20 20 20 20 21 21 20 20 21 21 21 nan nan
nan nan nan nan nan nan 16 21 26 28 27 nan nan nan nan nan nan nan nan nan nan nan nan nan nan nan nan nan nan nan nan nan nan 54 nan nan nan 42 29 30 26 22 17 16 18 17 14 17 19 20 22 25 27 27 26 25 26 26 25 25 25 25 23 21 20 21 22 23 23 22 20 20 20 20 20 21 21 21 21 21 21 21 22 22 24 nan
nan nan nan nan nan nan nan 20 22 20 nan 21 nan nan nan nan nan nan nan nan nan nan nan nan nan nan nan nan nan nan nan nan nan 49 55 nan nan 43 34 30 25 21 18 18 19 17 15 15 15 16 19 23 25 26 26 27 27 26 26 26 25 24 21 20 20 21 22 23 23 21 21 20 21 20 20 21 21 21 21 21 22 22 22 23 nan nan
nan nan nan nan nan nan 15 nan nan nan 19 20 19 nan nan nan nan nan nan nan nan nan nan nan nan nan nan nan nan nan nan nan nan 48 52 52 nan 33 31 27 25 21 18 17 17 17 16 15 16 16 19 22 23 25 26 27 26 24 23 24 24 23 21 20 19 21 22 23 23 22 22 21 21 21 21 21 21 21 22 22 23 23 22 23 nan nan
nan nan nan nan nan nan nan nan nan nan nan 17 23 nan nan nan nan nan nan nan nan nan nan nan nan nan nan nan nan nan nan nan 51 53 52 47 43 31 24 23 25 21 18 17 16 17 18 18 19 21 21 21 22 23 26 26 25 23 23 24 24 21 19 18 19 20 22 23 23 23 23 22 21 21 21 20 20 21 22 22 23 23 nan nan nan 23
nan nan nan nan nan nan nan nan nan nan nan nan 20 nan nan nan nan nan nan nan nan nan nan nan nan nan nan nan nan nan nan nan 51 51 50 46 45 40 22 22 23 23 21 21 21 20 20 21 23 23 21 21 22 23 26 26 25 25 23 23 22 21 20 18 19 21 23 24 24 23 23 22 22 22 21 21 21 21 22 22 22 23 22 nan nan 22
nan nan nan nan nan nan nan nan nan nan nan nan nan nan nan nan nan nan nan nan nan nan nan nan nan nan nan nan nan nan nan nan nan 48 45 45 44 45 36 23 23 23 23 24 24 21 19 19 20 19 19 21 23 23 23 24 25 23 23 23 22 24 21 20 21 23 25 25 24 23 23 23 23 23 22 21 22 22 22 21 22 23 23 21 nan nan
nan nan nan nan nan nan nan nan nan nan nan nan 19 nan nan 30 nan nan nan nan nan nan nan nan nan nan 31 nan nan nan nan nan nan 47 43 42 44 44 46 46 42 33 25 24 22 21 18 18 19 18 19 21 22 22 24 24 23 23 24 25 26 23 22 23 24 25 26 26 24 23 23 23 24 23 22 22 23 22 21 20 21 23 22 22 22 22
nan nan nan nan nan nan nan nan nan nan nan nan nan nan 36 36 34 nan nan nan nan nan nan nan nan nan nan nan nan nan nan nan nan nan nan 42 41 39 41 43 41 45 41 32 26 24 22 21 22 23 23 24 25 28 28 27 28 29 28 26 26 25 25 26 27 27 27 25 24 24 23 23 23 24 23 23 23 21 19 19 21 23 22 22 23 23
nan nan nan nan nan nan nan nan nan nan nan nan nan nan 38 37 37 35 30 22 25 27 nan nan nan nan nan nan nan nan nan nan nan nan nan nan nan 35 27 30 39 39 34 31 29 26 26 25 23 21 19 22 25 27 26 27 28 28 27 27 27 27 28 28 28 27 27 25 24 24 23 23 23 24 24 23 22 20 18 18 21 22 22 23 23 24
nan nan nan nan nan nan nan nan nan nan nan nan nan nan nan 32 32 31 23 17 20 24 21 16 nan nan nan nan nan nan nan nan nan nan nan nan nan nan 23 18 24 26 28 31 28 25 23 22 20 20 24 25 25 26 27 30 30 29 29 28 28 28 29 30 29 26 25 24 23 23 23 24 25 25 24 24 22 19 18 19 20 21 23 24 25 27
nan nan nan nan nan nan nan nan nan nan nan nan nan nan nan 21 28 26 25 20 17 20 16 15 12 8 10 nan nan nan nan nan nan nan nan nan nan nan 30 22 22 25 27 31 34 29 27 24 25 27 24 23 23 26 30 31 30 29 28 27 28 28 30 30 28 26 24 23 23 24 24 25 26 26 25 24 23 21 19 20 21 23 24 26 28 29
nan nan nan nan nan nan nan nan nan nan nan nan nan nan nan nan nan nan 28 23 24 24 17 14 7 3 4 7 14 nan nan nan nan nan nan nan nan nan nan 22 19 16 17 19 20 19 21 21 21 23 24 25 26 28 29 30 30 30 27 27 26 28 31 28 26 25 23 23 24 25 26 26 26 26 25 25 25 24 23 23 22 24 26 28 30 30
nan nan nan nan nan nan nan nan nan nan nan nan nan nan nan nan nan nan nan nan 28 29 20 16 12 9 6 8 14 17 nan nan nan nan nan nan 25 24 nan 18 17 15 14 18 21 18 17 19 23 23 22 22 22 26 29 31 31 29 26 25 27 29 29 26 25 26 26 25 25 27 28 27 24 25 27 26 24 24 25 26 26 26 28 30 30 31
nan nan nan nan nan nan nan nan nan nan nan nan nan nan nan nan nan nan nan 20 27 24 19 17 15 12 7 7 8 12 nan nan nan nan nan nan 29 28 21 15 11 12 14 15 16 18 20 19 19 17 16 17 22 28 30 31 30 28 26 26 27 27 27 27 29 29 28 28 29 28 28 28 26 25 25 25 24 25 25 25 27 30 31 31 30 32
nan nan nan nan nan nan nan nan nan nan nan nan nan nan nan 20 22 nan nan 19 20 19 17 17 14 12 13 8 3 9 21 31 31 31 31 nan nan 21 17 13 13 15 14 11 12 17 19 18 17 17 18 21 24 26 29 29 29 27 26 26 25 27 30 30 30 31 31 30 29 30 29 28 27 28 26 24 25 26 25 25 28 31 31 31 32 33
nan nan nan nan nan nan nan nan nan nan nan nan nan nan nan nan 17 nan nan nan 22 19 18 18 16 14 18 17 11 9 17 24 25 29 28 30 29 29 29 27 20 10 11 16 18 16 18 18 18 20 22 25 25 27 28 28 28 28 27 26 27 31 31 31 32 32 31 30 29 28 28 30 30 27 25 24 26 28 28 28 29 29 31 33 34 34
nan nan nan nan nan nan nan nan nan nan nan nan nan nan nan nan nan nan nan nan nan 20 20 21 18 17 18 19 18 17 14 19 19 19 21 24 27 26 25 26 30 35 26 13 11 13 17 18 20 24 27 29 28 29 29 28 29 30 29 28 33 34 33 34 34 33 31 30 30 30 32 32 30 27 26 28 29 30 31 30 30 31 32 33 34 33
nan nan nan nan nan nan nan nan nan nan nan nan nan nan nan nan nan nan nan nan nan nan 22 22 21 22 21 21 22 23 21 17 17 16 16 14 19 24 28 29 31 32 35 32 20 18 20 21 24 29 32 32 31 31 31 31 32 33 33 35 35 35 35 35 35 34 31 30 29 29 32 32 29 27 28 28 30 31 30 30 31 32 32 33 32 32
nan nan nan nan nan nan nan nan nan nan nan nan nan nan nan nan nan nan nan nan nan nan 22 21 22 23 24 26 27 27 24 20 19 20 21 18 17 20 25 31 34 37 39 40 39 31 26 26 29 33 34 34 33 33 33 34 36 35 37 38 37 36 38 38 37 34 31 29 28 29 33 31 28 27 28 29 27 29 29 31 31 31 31 32 32 31
nan nan nan nan nan nan nan nan nan nan nan nan nan nan nan nan nan nan nan nan nan nan nan 24 24 26 28 29 30 28 24 22 23 25 26 28 29 28 29 32 35 36 36 34 35 39 36 31 31 33 36 36 36 37 39 41 43 44 42 39 39 39 37 37 36 33 31 29 30 32 31 30 27 28 29 28 28 28 28 28 30 32 32 32 33 33
nan nan nan nan nan nan nan nan nan nan nan nan nan nan nan nan nan nan nan nan nan nan 22 nan nan 27 34 34 32 29 23 23 26 29 31 33 35 34 35 35 32 33 34 36 34 33 44 49 42 39 42 44 46 50 51 50 45 41 39 38 38 37 35 34 32 31 29 29 29 29 29 28 30 30 28 27 27 29 29 28 30 32 33 34 35 36
nan nan nan nan nan nan nan nan nan nan nan nan 3 nan nan nan nan nan nan nan nan nan nan nan 19 nan 31 31 30 27 25 29 30 32 35 36 38 37 36 36 36 33 33 37 35 34 35 43 49 49 47 47 47 45 42 38 36 34 36 36 36 34 34 32 32 33 32 30 29 28 28 28 27 27 27 27 27 28 29 30 31 32 32 32 35 37
nan nan nan nan nan nan nan nan nan nan nan nan nan nan nan nan nan nan nan nan nan nan nan nan nan nan nan nan 25 23 24 30 32 36 40 40 37 34 33 35 36 37 36 36 40 40 37 37 41 44 42 46 46 45 43 41 37 32 32 32 32 32 33 33 32 33 30 28 27 27 27 27 26 26 27 28 29 32 34 38 38 35 35 36 37 39
nan nan nan nan nan nan nan nan nan nan nan nan nan nan nan nan nan nan nan nan nan nan nan nan nan nan nan nan 21 24 28 31 33 35 39 37 33 30 31 32 34 35 37 38 40 44 42 35 38 42 40 42 44 42 39 38 35 30 28 28 28 29 30 31 31 30 28 27 25 25 25 26 26 27 28 30 33 34 36 37 37 39 40 39 39 40
Wind_Direction
nan nan nan nan nan nan nan nan nan nan nan nan nan nan nan nan nan nan nan nan nan nan nan nan nan nan nan nan nan nan nan nan nan nan 224 228 229 233 238 240 243 245 247 246 250 259 268 269 262 259 261 264 269 276 286 293 290 288 288 285 289 289 290 292 293 295 298 297 295 298 306 307 307 306 301 296 294 299 303 307 308 305 305 304 303 300
nan nan nan nan nan nan nan nan nan nan nan nan nan nan nan nan nan nan nan nan nan nan nan nan nan nan nan nan nan nan nan nan nan nan 226 226 230 236 245 247 246 245 241 245 247 245 247 257 262 260 257 261 270 271 281 296 295 288 287 288 287 287 290 293 293 292 296 296 299 301 304 301 303 302 301 296 296 300 302 306 308 306 304 302 300 298
nan nan nan nan nan nan nan nan nan nan nan nan nan nan nan nan nan nan nan nan nan nan nan nan nan nan nan nan nan nan nan nan nan nan 228 233 230 233 240 245 245 243 244 246 250 253 254 260 266 268 267 269 276 276 283 291 293 289 286 286 285 287 289 288 289 289 292 291 295 298 297 298 294 290 292 292 292 296 301 307 310 307 305 301 296 294
nan nan nan nan nan nan nan nan nan nan nan nan nan nan nan nan nan nan nan nan nan nan nan nan nan nan nan nan nan nan nan nan nan nan 230 230 235 237 240 242 244 246 248 250 252 254 258 264 266 267 271 272 270 274 277 288 294 288 284 284 286 287 286 285 285 286 286 291 291 291 295 293 293 294 288 283 285 290 297 305 308 307 304 299 297 294
nan nan nan nan nan nan nan nan nan nan nan nan nan nan nan nan nan nan nan nan nan nan nan nan nan nan nan nan nan nan nan nan nan nan nan 226 225 235 238 241 248 251 251 253 254 256 259 262 265 271 275 273 278 282 284 289 292 283 285 285 286 285 286 284 284 284 285 287 286 286 286 285 281 279 281 282 286 295 301 302 307 312 302 298 298 298
nan nan nan nan nan nan nan nan nan nan nan nan nan nan nan nan nan nan nan nan nan nan nan nan nan nan nan nan nan nan nan nan nan nan nan nan 216 218 232 239 242 249 255 260 261 261 262 265 267 268 271 277 282 284 285 288 287 281 281 282 282 281 282 284 284 284 285 288 292 293 294 294 291 292 293 299 302 301 304 308 305 303 296 293 293 294
nan nan nan nan nan nan nan nan nan nan nan nan nan nan nan nan nan nan nan nan nan nan nan nan nan nan nan nan nan nan nan nan nan nan nan nan nan 224 230 237 241 246 249 256 261 263 263 264 267 270 276 281 282 281 281 283 282 282 282 282 283 282 281 282 282 285 284 287 292 297 297 293 292 292 287 289 295 299 298 296 301 298 291 290 291 287
nan nan nan nan nan nan nan nan nan nan nan nan nan nan nan nan nan nan nan nan nan nan nan nan nan nan nan nan nan nan nan nan nan nan nan nan nan nan 233 241 245 247 250 253 257 261 265 269 272 275 281 281 282 281 280 281 283 287 286 285 285 282 281 280 281 284 287 290 291 292 292 290 289 292 294 296 295 292 292 293 292 291 292 291 289 290
nan nan nan nan nan nan nan nan nan nan nan nan nan nan nan nan nan nan nan nan nan nan nan nan nan nan nan nan nan nan nan nan nan nan nan nan nan nan nan 238 243 249 252 256 257 261 264 268 272 277 282 279 275 276 280 282 286 286 286 286 284 283 281 279 283 284 288 290 290 290 287 285 281 284 288 288 289 290 290 291 289 289 288 284 284 289
nan nan nan nan nan nan nan nan nan nan nan nan nan nan nan nan nan nan nan nan nan nan nan nan nan nan nan nan nan nan nan nan nan nan nan nan nan nan nan 238 238 240 246 253 260 263 266 269 273 277 278 274 275 273 272 274 278 282 284 287 289 286 280 279 282 284 288 288 287 288 286 285 280 280 283 288 291 290 291 291 290 287 286 285 283 284
nan nan nan nan nan nan nan nan nan nan nan nan nan nan nan nan nan nan nan nan nan nan nan nan nan nan nan nan nan nan nan nan nan nan nan nan nan nan nan nan 241 241 243 247 253 259 264 267 272 270 268 270 266 263 268 272 277 280 285 289 291 288 280 281 284 286 289 287 287 287 286 287 286 287 290 292 291 289 290 292 290 289 287 285 285 285
nan nan nan nan nan nan nan nan nan nan nan nan nan nan nan nan nan nan nan nan nan nan nan nan nan nan nan nan nan nan nan nan nan nan nan nan nan nan nan nan 242 247 246 248 251 254 259 260 258 258 263 265 266 264 268 271 275 278 284 290 291 287 286 284 285 287 287 286 287 283 284 286 287 291 294 299 300 299 297 294 292 287 284 284 285 285
nan nan nan nan nan nan nan nan nan nan nan nan nan nan nan nan nan nan nan nan nan nan nan nan nan nan nan nan nan nan nan nan nan nan nan nan nan nan nan nan 241 246 249 251 253 255 257 259 260 261 264 266 266 270 276 278 275 275 283 292 293 292 288 287 286 288 288 287 288 284 281 280 283 291 297 298 298 297 294 293 291 291 290 289 288 292
nan nan nan nan nan nan nan nan nan nan nan nan nan nan nan nan nan nan nan nan nan nan nan nan nan nan nan nan nan nan nan nan nan nan nan nan nan nan nan nan 240 246 252 253 255 257 258 259 262 269 273 273 271 274 279 278 275 272 278 287 291 291 288 285 287 289 291 292 285 277 275 277 281 288 293 293 294 291 288 290 293 294 295 295 296 297
nan nan nan nan nan nan nan nan nan nan nan nan nan nan nan nan nan nan nan nan nan nan nan nan nan nan nan nan nan nan nan nan nan nan nan nan nan nan nan nan 242 248 251 255 256 258 259 263 268 269 272 273 274 278 278 274 272 272 276 283 286 285 287 289 291 289 295 288 280 273 271 274 277 283 286 287 285 285 287 287 290 289 290 292 294 298
nan nan nan nan nan nan nan nan nan nan nan nan nan nan nan nan nan nan nan nan nan nan nan nan nan nan nan nan nan nan nan nan nan nan nan nan nan nan nan nan 240 242 246 250 255 258 261 264 265 265 266 269 272 277 274 275 273 275 277 280 283 286 286 288 289 291 292 281 272 269 271 275 278 277 279 277 275 277 284 288 290 291 291 290 292 292
nan nan nan nan nan nan nan nan nan nan nan nan nan nan nan nan nan nan nan nan nan nan nan nan nan nan nan nan nan nan nan nan nan nan nan nan nan nan nan nan 236 240 246 250 254 256 262 259 260 261 264 265 268 271 275 280 280 279 273 271 274 275 278 284 289 288 283 276 270 268 270 274 277 282 284 282 281 283 280 282 284 289 289 289 294 296
nan nan nan nan nan nan nan nan nan nan nan nan nan nan nan nan nan nan nan nan nan nan nan nan nan nan nan nan nan nan nan nan nan nan nan nan nan nan nan 235 237 243 249 254 256 258 262 261 260 257 258 265 272 277 278 280 274 267 264 268 273 277 284 284 285 285 280 276 271 269 274 276 281 281 279 277 281 279 279 278 280 281 287 297 300 299
nan nan nan nan nan nan nan nan nan nan nan nan nan nan nan nan nan nan nan nan nan nan nan nan nan nan nan nan nan nan nan nan nan nan nan nan nan nan nan 237 237 243 246 248 251 255 257 255 255 255 258 259 261 267 274 274 267 259 256 260 268 278 282 281 276 274 268 267 262 265 273 279 278 276 275 273 276 279 283 285 286 nan nan 297 302 300
nan nan nan nan nan nan nan nan nan nan nan nan nan nan 206 nan nan nan nan nan nan nan nan nan nan nan nan nan nan nan nan nan nan nan nan nan nan nan nan 239 240 240 241 243 247 252 256 253 254 258 259 259 259 260 260 261 259 261 258 260 261 264 266 270 275 277 275 269 264 264 268 275 277 275 274 275 279 282 285 285 288 nan nan 306 303 303
nan nan nan nan nan nan nan nan nan nan nan nan nan nan nan nan nan nan nan nan nan nan nan nan nan nan nan nan nan nan nan nan nan nan nan nan nan nan nan 242 243 244 242 244 247 254 258 251 249 247 249 252 253 254 256 259 263 261 256 260 263 270 275 278 278 278 272 263 263 269 274 277 277 277 274 276 280 283 283 283 286 nan 298 299 305 305
nan nan nan nan nan nan nan nan nan nan nan nan nan nan nan nan nan nan nan nan nan nan nan nan nan nan nan nan nan nan nan nan nan nan nan nan nan nan nan 239 248 246 248 251 253 260 258 247 242 239 240 243 248 250 253 255 256 257 261 261 260 264 269 274 274 274 269 263 259 266 270 277 275 277 275 280 283 283 283 284 287 290 296 305 306 nan
nan nan nan nan nan nan nan nan nan nan nan nan nan nan nan nan nan nan nan nan nan nan nan nan nan nan nan nan nan nan nan nan nan 182 181 nan nan nan nan nan 243 255 255 254 256 256 255 249 244 243 247 252 254 252 252 254 259 262 263 261 258 262 267 270 272 269 264 261 260 264 267 274 276 278 282 286 284 287 285 284 286 292 300 nan nan nan
nan nan nan nan nan nan nan nan nan nan nan nan nan nan nan nan nan nan nan nan nan nan nan nan nan nan nan nan nan nan nan nan nan 184 185 nan nan nan nan nan 240 242 250 252 248 249 248 245 243 241 244 247 247 247 250 253 258 261 260 259 258 262 263 263 263 266 266 262 262 265 268 274 276 283 286 289 286 289 286 284 287 292 nan nan nan nan
nan nan nan nan nan nan nan nan nan nan nan nan nan nan nan nan nan nan nan nan nan nan nan nan nan nan nan nan nan nan nan nan 175 178 187 nan nan nan nan 232 238 244 241 241 245 244 244 245 245 243 244 247 248 248 249 252 257 262 261 257 257 257 259 259 260 265 265 263 264 269 273 277 280 285 289 290 286 289 285 286 287 289 nan nan nan nan
nan nan nan nan nan nan nan nan nan nan nan nan nan nan nan nan nan nan nan nan nan nan nan nan nan nan nan nan nan nan nan nan 173 179 183 189 nan nan nan 236 245 245 243 247 245 243 252 251 245 241 240 241 247 250 249 252 255 257 257 257 253 254 255 258 260 265 264 263 267 271 278 282 282 288 290 290 288 288 285 285 286 289 nan nan nan nan
nan nan nan nan nan nan 104 nan 156 176 nan nan nan nan nan nan nan nan nan nan nan nan nan nan nan nan nan nan nan nan nan nan 173 176 181 nan nan nan 215 231 243 250 251 257 255 252 247 246 247 239 237 239 243 244 245 250 254 253 254 254 252 252 253 255 260 265 265 266 269 270 280 284 285 285 289 289 286 282 280 283 286 289 292 294 nan nan
nan nan nan nan nan nan 106 126 144 160 174 nan nan nan nan nan nan nan nan nan nan nan nan nan nan nan nan nan nan nan nan nan nan 177 nan nan nan 185 208 227 237 239 242 246 248 248 245 245 244 237 235 238 237 240 241 243 249 253 253 254 252 251 250 249 260 263 263 266 268 273 280 282 281 285 288 286 285 282 279 280 284 288 289 291 295 nan
nan nan nan nan nan nan nan 140 151 165 nan 179 nan nan nan nan nan nan nan nan nan nan nan nan nan nan nan nan nan nan nan nan nan 176 180 nan nan 186 201 235 243 246 245 248 248 241 234 242 249 245 238 237 236 239 241 239 242 244 244 246 247 246 250 253 259 261 263 265 268 272 275 274 278 282 284 287 285 281 278 280 282 285 289 291 nan nan
nan nan nan nan nan nan 137 nan nan nan 175 176 184 nan nan nan nan nan nan nan nan nan nan nan nan nan nan nan nan nan nan nan nan 180 181 183 nan 194 201 225 242 244 249 250 246 243 235 244 256 256 247 241 242 242 242 242 244 247 248 245 244 243 244 249 255 258 260 264 266 268 272 274 276 281 283 286 287 281 278 279 281 285 289 291 nan nan
nan nan nan nan nan nan nan nan nan nan nan 179 180 nan nan nan nan nan nan nan nan nan nan nan nan nan nan nan nan nan nan nan 180 184 184 182 185 190 200 220 233 243 249 248 251 247 238 240 248 250 246 247 248 247 245 245 245 244 243 241 241 242 243 249 252 256 259 262 263 266 270 273 277 280 285 285 282 278 278 279 280 285 nan nan nan 286
nan nan nan nan nan nan nan nan nan nan nan nan 193 nan nan nan nan nan nan nan nan nan nan nan nan nan nan nan nan nan nan nan 182 186 188 189 192 193 198 216 228 242 242 249 250 243 239 237 238 239 242 244 245 246 243 242 241 242 243 242 241 238 239 245 250 253 257 259 260 266 272 274 278 281 282 281 281 279 275 276 282 285 284 nan nan 280
nan nan nan nan nan nan nan nan nan nan nan nan nan nan nan nan nan nan nan nan nan nan nan nan nan nan nan nan nan nan nan nan nan 193 193 193 193 196 196 208 236 237 247 254 251 242 233 231 235 241 242 242 241 241 244 248 246 246 245 244 241 236 239 245 248 251 254 257 262 267 272 275 279 281 280 279 277 274 273 278 282 282 281 282 nan nan
nan nan nan nan nan nan nan nan nan nan nan nan 196 nan nan 202 nan nan nan nan nan nan nan nan nan nan 204 nan nan nan nan nan nan 198 197 200 196 193 195 200 202 213 236 247 248 244 233 230 236 242 245 244 241 241 242 242 244 241 239 240 237 238 240 243 245 249 253 257 264 268 271 276 280 281 279 276 276 275 277 281 283 281 279 276 275 280
nan nan nan nan nan nan nan nan nan nan nan nan nan nan 191 195 202 nan nan nan nan nan nan nan nan nan nan nan nan nan nan nan nan nan nan 192 206 203 192 193 208 213 210 213 224 230 235 239 239 233 229 228 231 231 232 230 229 231 231 235 237 237 240 242 245 248 252 258 263 266 271 276 279 280 278 277 277 277 278 279 276 279 279 279 283 286
nan nan nan nan nan nan nan nan nan nan nan nan nan nan 194 200 202 201 205 214 227 217 nan nan nan nan nan nan nan nan nan nan nan nan nan nan nan 210 200 195 207 207 218 224 223 227 228 231 235 237 238 234 232 230 233 234 235 236 233 233 237 237 240 243 246 248 252 258 263 269 272 274 274 276 276 277 278 281 281 277 278 280 277 277 278 279
nan nan nan nan nan nan nan nan nan nan nan nan nan nan nan 198 193 202 209 200 219 215 218 201 nan nan nan nan nan nan nan nan nan nan nan nan nan nan 212 198 207 216 208 209 222 218 222 227 226 226 228 230 232 234 233 231 233 234 233 233 234 238 241 245 248 251 256 259 263 268 271 273 275 276 278 279 281 281 279 276 275 275 276 280 280 281
nan nan nan nan nan nan nan nan nan nan nan nan nan nan nan 193 201 201 213 212 227 215 227 218 204 175 145 nan nan nan nan nan nan nan nan nan nan nan 211 197 201 212 216 210 205 206 205 213 220 221 224 230 233 234 233 234 236 235 233 233 234 240 243 247 250 252 255 259 264 266 269 272 275 278 280 282 286 282 275 275 279 285 284 287 285 283
nan nan nan nan nan nan nan nan nan nan nan nan nan nan nan nan nan nan 225 222 233 221 222 234 221 166 118 158 173 nan nan nan nan nan nan nan nan nan nan 196 190 203 206 211 218 218 215 219 231 232 228 232 235 233 235 237 238 235 232 231 235 241 245 246 249 254 257 258 262 264 265 269 275 280 284 285 288 291 287 283 285 287 290 288 284 283
nan nan nan nan nan nan nan nan nan nan nan nan nan nan nan nan nan nan nan nan 232 221 223 226 212 192 167 144 164 191 nan nan nan nan nan nan 192 196 nan 192 185 192 203 205 207 219 227 230 234 233 238 244 243 239 238 236 235 234 231 230 235 240 244 248 248 247 250 252 257 261 267 275 284 287 288 295 298 293 287 275 274 285 292 287 283 281
nan nan nan nan nan nan nan nan nan nan nan nan nan nan nan nan nan nan nan 219 211 212 218 222 207 196 223 161 154 168 nan nan nan nan nan nan 188 196 191 189 193 202 213 221 222 224 226 234 246 250 258 253 246 238 237 235 234 231 228 230 235 241 240 241 244 246 245 248 254 260 269 274 280 281 280 286 291 294 290 283 282 285 289 287 281 279
nan nan nan nan nan nan nan nan nan nan nan nan nan nan nan 221 227 nan nan 209 207 208 213 218 215 211 210 216 144 118 143 158 174 190 189 nan nan 184 206 205 196 195 202 222 235 233 233 240 244 247 248 246 250 245 240 237 235 230 228 229 234 236 237 240 244 246 249 252 259 266 272 277 274 273 279 283 283 287 290 285 285 287 289 284 282 283
nan nan nan nan nan nan nan nan nan nan nan nan nan nan nan nan 241 nan nan nan 212 210 213 218 228 224 231 217 199 147 136 144 173 191 202 213 207 193 187 190 197 220 230 213 209 219 242 239 241 244 246 244 248 245 241 240 236 230 228 230 233 233 236 240 243 247 252 259 263 267 271 273 278 279 277 282 287 288 287 283 283 282 280 279 278 280
nan nan nan nan nan nan nan nan nan nan nan nan nan nan nan nan nan nan nan nan nan 215 217 224 224 235 233 237 220 203 173 143 156 191 204 204 205 204 206 208 206 194 192 211 245 233 234 235 235 238 239 241 242 240 237 238 233 229 229 228 228 233 236 240 244 247 252 257 261 265 267 269 272 277 279 284 286 287 285 283 281 279 277 278 280 281
nan nan nan nan nan nan nan nan nan nan nan nan nan nan nan nan nan nan nan nan nan nan 227 224 223 224 234 237 235 232 213 184 171 186 216 206 206 208 210 205 203 209 205 188 195 226 225 228 230 232 233 235 239 234 231 229 231 229 228 223 227 233 236 240 245 249 253 258 262 268 267 268 272 277 279 281 284 285 282 280 278 276 274 279 279 281
nan nan nan nan nan nan nan nan nan nan nan nan nan nan nan nan nan nan nan nan nan nan 218 223 223 227 232 241 239 239 230 207 202 207 212 215 214 217 217 211 209 209 209 205 194 201 216 223 228 231 233 231 232 230 226 224 228 231 224 224 225 230 236 239 244 249 253 255 258 261 262 265 268 272 276 279 279 281 281 282 281 280 278 277 278 279
nan nan nan nan nan nan nan nan nan nan nan nan nan nan nan nan nan nan nan nan nan nan nan 205 220 227 234 233 242 242 229 216 220 224 225 222 215 215 219 224 224 216 217 224 223 205 202 219 224 226 232 232 227 226 221 220 219 222 222 223 225 229 236 242 246 247 250 252 252 254 262 269 270 269 268 270 268 269 272 275 277 278 278 277 278 278
nan nan nan nan nan nan nan nan nan nan nan nan nan nan nan nan nan nan nan nan nan nan 208 nan nan 221 229 229 232 238 232 228 231 234 234 233 230 228 228 231 234 232 226 239 249 236 212 203 205 216 220 221 220 221 215 214 214 215 218 223 229 233 239 244 249 253 255 259 259 261 264 267 271 273 270 270 272 272 269 270 273 276 278 279 279 280
nan nan nan nan nan nan nan nan nan nan nan nan 281 nan nan nan nan nan nan nan nan nan nan nan 219 nan 226 226 227 229 230 235 236 240 242 239 237 237 240 239 241 242 238 243 250 252 231 218 217 216 218 218 218 221 218 214 209 214 222 225 230 236 241 244 249 252 254 256 258 260 261 264 267 267 269 269 268 269 273 277 276 275 274 273 278 285
nan nan nan nan nan nan nan nan nan nan nan nan nan nan nan nan nan nan nan nan nan nan nan nan nan nan nan nan 229 230 232 237 235 236 240 240 241 244 246 244 243 246 243 241 245 243 242 232 224 220 209 204 210 213 209 206 207 213 221 227 232 237 242 246 249 254 258 259 259 257 259 259 260 263 267 268 268 266 256 247 257 265 273 276 277 278
nan nan nan nan nan nan nan nan nan nan nan nan nan nan nan nan nan nan nan nan nan nan nan nan nan nan nan nan 228 233 232 237 238 240 243 242 243 241 240 241 242 245 247 249 246 241 236 235 222 218 217 213 212 211 206 200 198 205 216 227 233 241 246 251 252 255 257 258 259 263 262 262 262 263 263 262 263 263 264 262 256 262 275 279 282 285